DateTimeUTC,F1_A11,F1_S11,BsB_S11,BsG_S11,BsR_S11,BbsB_S11,BbsG_S11,BbsR_S11,BaB_A11,BaG_A11,BaR_A11,Tu_S11,T_S11,Uu_S11,U_S11,P_S11,T1_A11
2021-10-18T19:00:00Z,00000200,21000000,,,,,,,0000.14,0000.07,0000.20,17.2,24.4,,00.0,0675.9,30.9
2021-10-18T19:01:00Z,00000200,21000000,,,,,,,-000.13,-000.14,0000.10,17.2,24.4,,00.0,0675.9,30.9
2021-10-18T19:02:00Z,00000200,21000000,,,,,,,0000.47,0000.57,0000.38,17.1,24.4,,00.0,0675.9,30.9
2021-10-18T19:03:00Z,00000200,61000000,,,,,,,0000.41,0000.33,0000.43,17.1,24.4,,00.0,0675.9,30.9
2021-10-18T19:04:00Z,00000200,41000000,0000.40,0000.41,0000.28,0000.29,0000.08,0000.04,0000.49,0000.24,0000.07,17.4,24.1,,00.0,0676.7,31.0
2021-10-18T19:05:00Z,00000200,01000000,0001.54,0000.44,0000.32,0000.21,-000.03,0000.08,0000.26,0000.52,0000.29,17.5,24.1,,00.0,0676.7,31.0
2021-10-18T19:06:00Z,00000200,01000000,0001.00,0000.53,-000.02,0000.07,0000.01,-000.19,0000.40,0000.66,0000.49,17.6,24.1,,00.0,0676.7,31.0
2021-10-18T19:07:00Z,00000200,01000000,0000.12,0000.62,0000.24,0000.57,0000.30,0000.31,0000.37,0000.01,-000.07,17.6,24.1,,00.0,0676.7,31.0
2021-10-18T19:08:00Z,00000200,01000000,-000.12,0000.42,0000.13,0000.06,0000.34,0000.32,0000.36,0000.48,0000.23,17.7,24.2,,00.0,0676.7,31.0
2021-10-18T19:09:00Z,00000200,01000000,0000.96,0000.42,0000.20,0000.19,0000.48,0000.25,0000.32,0000.06,0000.17,17.8,24.2,,00.0,0676.7,31.0
2021-10-18T19:10:00Z,00000200,01000000,0000.58,0000.41,0000.25,0000.15,0000.19,0000.04,0000.19,0000.47,0000.23,17.8,24.2,,00.0,0676.7,31.0
2021-10-18T19:11:00Z,00000200,01000000,0000.13,0000.40,0000.26,0000.45,0000.25,0000.05,0000.62,0000.57,0000.36,17.8,24.2,,00.0,0676.7,31.0
2021-10-18T19:12:00Z,00000200,01000000,0000.64,0000.17,-000.03,0000.62,0000.22,-000.12,0000.00,-000.13,0000.29,17.7,24.2,,00.0,0676.7,31.0
2021-10-18T19:13:00Z,00000200,01000000,0000.40,-000.01,0000.52,-000.09,-000.03,0000.27,0000.26,0000.05,-000.19,17.7,24.2,,00.0,0676.7,31.0
2021-10-18T19:14:00Z,00000200,01000000,0000.63,0000.14,0000.05,0000.01,0000.11,-000.07,0000.02,-000.21,-000.23,17.6,24.1,,00.0,0676.6,30.9
2021-10-18T19:15:00Z,00000200,01000000,0000.09,0000.56,0000.20,0000.13,0000.22,0000.07,0000.10,0000.49,0000.24,17.5,24.1,,00.0,0676.6,30.9
2021-10-18T19:16:00Z,00000200,01000000,0000.53,0000.36,0000.14,0000.32,0000.33,-000.11,0000.84,0000.49,0000.63,17.5,24.0,,00.0,0676.6,30.9
2021-10-18T19:17:00Z,00000200,01000000,0000.09,0000.11,0000.03,0000.62,0000.05,-000.00,0000.63,0000.77,0000.39,17.5,24.0,,00.0,0676.7,30.9
2021-10-18T19:18:00Z,00000200,01000000,0000.20,-000.15,-000.18,-000.05,-000.19,-000.28,0000.38,0000.32,0000.11,17.5,24.0,,00.0,0676.7,31.0
2021-10-18T19:19:00Z,00000200,01000000,-000.15,0000.13,0000.22,-000.14,0000.13,0000.21,0000.25,0000.16,0000.28,17.6,24.1,,00.0,0676.7,31.0
2021-10-18T19:20:00Z,00000200,01000000,0000.04,-000.21,0000.14,0000.56,0000.17,0000.03,0000.38,0000.59,0000.26,17.7,24.1,,00.0,0676.7,31.0
2021-10-18T19:21:00Z,00000200,01000000,0000.58,-000.13,0000.00,0000.51,0000.05,0000.06,0000.14,-000.02,0000.14,17.7,24.1,,00.0,0676.7,31.0
2021-10-18T19:22:00Z,00000200,01000000,-000.59,0000.22,-000.23,-000.86,0000.06,0000.08,0000.35,0000.49,0000.24,17.8,24.2,,00.0,0676.7,31.0
2021-10-18T19:23:00Z,00000200,01000000,0000.31,0000.22,-000.05,-000.45,0000.09,-000.15,0000.31,0000.19,0000.28,17.9,24.2,,00.0,0676.7,31.0
2021-10-18T19:24:00Z,00000200,01000000,-000.84,-000.17,0000.02,0000.60,0000.37,0000.01,0000.08,0000.20,0000.10,17.9,24.2,,00.0,0676.7,31.0
2021-10-18T19:25:00Z,00000200,01000000,-000.65,-000.29,-000.12,-000.03,0000.29,0000.02,0000.41,-000.09,-000.07,17.8,24.2,,00.0,0676.7,31.0
2021-10-18T19:26:00Z,00000200,01000000,0000.04,-000.09,-000.26,0000.61,0000.09,-000.09,-000.20,0000.07,-000.12,17.7,24.2,,00.0,0676.7,31.0
2021-10-18T19:27:00Z,00000200,01000000,0000.58,0000.10,0000.07,-000.12,0000.38,0000.12,-000.27,-000.36,-000.07,17.7,24.1,,00.0,0676.7,31.0
2021-10-18T19:28:00Z,00000200,01000000,0000.38,-000.11,0000.17,0000.39,0000.17,-000.14,0000.85,0000.71,0000.44,17.6,24.1,,00.0,0676.7,30.9
2021-10-18T19:29:00Z,00000200,01000000,0001.46,0001.20,0000.62,0000.54,0000.59,0000.38,0016.92,0015.80,0012.46,17.5,24.0,,00.0,0676.7,30.9
2021-10-18T19:30:00Z,00000200,01000000,0006.35,0004.59,0002.88,0002.22,0000.98,0000.86,0073.28,0067.37,0054.33,17.4,24.0,,00.0,0676.7,30.9
2021-10-18T19:31:00Z,00000200,01000000,0004.85,0003.36,0002.42,0000.93,0001.00,0000.54,0059.80,0055.71,0044.66,17.4,24.0,,00.0,0676.7,30.9
2021-10-18T19:32:00Z,00000200,01000000,0001.68,0000.80,0000.88,0000.30,0000.39,0000.30,0017.45,0016.34,0013.05,17.4,23.9,,00.0,0676.7,30.9
2021-10-18T19:33:00Z,00000200,01000000,0001.05,0001.08,0000.52,0000.37,0000.35,0000.00,0008.94,0008.00,0006.75,17.5,23.9,,00.0,0676.7,30.9
2021-10-18T19:34:00Z,00000200,01000000,0001.19,0000.71,0000.47,0000.67,-000.00,-000.18,0007.24,0007.09,0005.25,17.6,24.0,,00.0,0676.7,31.0
2021-10-18T19:35:00Z,00000200,01000000,0002.24,0001.71,0000.87,0000.86,0000.63,0000.55,0027.64,0025.75,0020.55,17.6,24.0,,00.0,0676.7,31.0
2021-10-18T19:36:00Z,00000200,01000000,0000.83,0000.49,-000.05,0000.18,0000.35,-000.11,0011.70,0010.55,0009.12,17.7,24.1,,00.0,0676.7,31.0
2021-10-18T19:37:00Z,00000200,01000000,-000.28,0000.16,-000.04,0000.22,0000.36,0000.03,0002.03,0002.39,0001.56,17.8,24.1,,00.0,0676.7,31.0
2021-10-18T19:38:00Z,00000200,01000000,-000.11,0000.11,-000.09,0000.05,0000.44,0000.01,0000.66,0000.39,0000.18,17.8,24.1,,00.0,0676.7,31.0
2021-10-18T19:39:00Z,00000200,01000000,-000.39,-000.06,-000.07,-000.24,0000.38,-000.14,-000.04,-000.41,0000.15,17.9,24.1,,00.0,0676.6,31.0
2021-10-18T19:40:00Z,00000200,01000000,0000.43,0000.20,-000.02,0000.34,0000.14,-000.19,0000.22,0000.74,0000.20,17.8,24.2,,00.0,0676.6,31.0
2021-10-18T19:41:00Z,00000200,01000000,0001.24,0000.71,0000.69,0000.37,0000.38,0000.01,0011.58,0010.08,0008.37,17.8,24.2,,00.0,0676.7,31.0
2021-10-18T19:42:00Z,00000200,01000000,0003.34,0002.73,0001.44,0001.26,0000.87,0000.26,0038.54,0035.87,0028.74,17.7,24.1,,00.0,0676.7,31.0
2021-10-18T19:43:00Z,00000200,01000000,0005.29,0004.26,0002.25,0001.71,0001.07,0000.85,0067.29,0062.27,0049.84,17.6,24.1,,00.0,0676.7,30.9
2021-10-18T19:44:00Z,00000200,01000000,0010.81,0008.22,0005.18,0001.75,0001.92,0001.75,0126.25,0116.98,0094.85,17.6,24.0,,00.0,0676.7,30.9
2021-10-18T19:45:00Z,00000200,01000000,0012.75,0010.08,0006.25,0003.92,0002.59,0001.86,0156.45,0145.41,0116.89,17.5,24.0,,00.0,0676.7,30.9
2021-10-18T19:46:00Z,00000200,01000000,0011.49,0007.83,0005.11,0002.61,0002.09,0001.29,0128.33,0118.96,0096.19,17.5,23.9,,00.0,0676.7,30.9
2021-10-18T19:47:00Z,00000200,01000000,0012.90,0009.91,0005.74,0003.27,0002.58,0001.87,0154.51,0143.68,0115.25,17.5,23.9,,00.0,0676.7,30.9
2021-10-18T19:48:00Z,00000200,01000000,0008.50,0006.45,0003.81,0000.98,0001.66,0001.26,0115.48,0107.74,0087.17,17.5,24.0,,00.0,0676.7,30.9
2021-10-18T19:49:00Z,00000200,01000000,0002.30,0001.55,0000.68,0000.91,0000.21,0000.24,0028.01,0026.13,0020.95,17.6,24.0,,00.0,0676.7,31.0
2021-10-18T19:50:00Z,00000200,01000000,0012.26,0008.97,0005.59,0003.26,0002.39,0001.49,0139.25,0128.29,0102.56,17.7,24.0,,00.0,0676.7,31.0
2021-10-18T19:51:00Z,00000200,01000000,0031.53,0022.56,0013.92,0007.27,0005.79,0003.67,0340.92,0315.24,0254.01,17.7,24.1,,00.0,0676.7,31.0
2021-10-18T19:52:00Z,00000200,01000000,0033.35,0025.15,0015.74,0007.10,0006.06,0004.25,0384.41,0358.84,0290.14,17.8,24.1,,00.0,0676.7,31.0
2021-10-18T19:53:00Z,00000200,01000000,0020.12,0014.52,0009.14,0003.78,0003.59,0002.41,0230.60,0214.61,0174.59,17.9,24.1,,00.0,0676.7,31.0
2021-10-18T19:54:00Z,00000200,01000000,0003.16,0002.15,0001.41,0000.75,0000.96,0000.26,0040.22,0038.00,0031.24,17.9,24.2,,00.0,0676.7,31.0
2021-10-18T19:55:00Z,00000200,01000000,0000.43,0000.24,0000.19,0000.36,0000.35,0000.07,0005.89,0005.42,0004.13,17.9,24.2,,00.0,0676.7,31.0
2021-10-18T19:56:00Z,00000200,01000000,0002.13,0000.98,0000.62,0000.59,0000.82,0000.47,0020.55,0018.72,0015.58,17.8,24.1,,00.0,0676.6,31.0
2021-10-18T19:57:00Z,00000200,41000000,,,,,,,0018.01,0017.12,0013.82,17.8,24.0,,00.0,0676.6,31.0
2021-10-18T19:58:00Z,00000200,61000000,,,,,,,0002.07,0002.13,0001.51,17.4,24.2,,00.0,0675.7,31.0
2021-10-18T19:59:00Z,00000200,21000000,,,,,,,0000.87,0001.07,0000.44,17.3,24.3,,00.0,0675.7,30.9
